[[{"header":{"parameterUnit":"m.s-1","parameterCategory":1,"la1":30.2992,"la2":30.254,"lo1":-89.0895,"lo2":-89.0443,"dy":0.0025,"dx":0.0025,"nx":19,"ny":19,"refTime":"2026-03-09T03:00:00:Z","depth":0,"parameterNumber":2,"parameterNumberName":"U-component_of_WINDS"},"data":[0,0,0,-1.6165,-1.6165,-1.6168,-1.6168,-1.6184,-1.6184,0,0,0,0,0,0,0,0,0,0,0,-1.6171,-1.6171,-1.6165,-1.6165,-1.6168,-1.6168,-1.6184,-1.6184,0,0,0,0,0,0,0,0,0,0,0,-1.6171,-1.6171,-1.6172,-1.6166,-1.6168,-1.6168,-1.6184,-1.6177,0,0,0,0,0,0,0,0,0,0,-1.6173,-1.6184,-1.6171,-1.6172,-1.6166,-1.6168,-1.6168,-1.6177,-1.6178,-1.6187,0,-1.6197,0,-1.6191,-1.6186,-1.6186,0,0,0,-1.6161,-1.6183,-1.6178,-1.6172,-1.6166,-1.6168,-1.6166,-1.6177,-1.6178,-1.6189,-1.6197,-1.6198,-1.6191,-1.6186,-1.6186,-1.6258,-1.6258,0,0,-1.616,-1.6175,-1.6178,-1.6179,-1.6179,-1.6166,-1.6166,-1.6178,-1.6188,-1.6197,-1.6198,-1.6191,-1.6186,-1.6186,-1.6257,-1.6258,0,0,0,-1.6163,-1.6175,-1.6169,-1.6179,-1.6179,-1.6166,-1.6166,-1.6187,-1.6184,-1.6198,-1.6192,-1.6186,-1.6186,-1.6257,-1.6257,-1.6298,0,0,0,-1.6163,-1.6177,-1.617,-1.6178,-1.6179,-1.6183,-1.6176,-1.6184,-1.6185,-1.6192,-1.6186,-1.6187,-1.6256,-1.6257,-1.6296,-1.6315,0,0,0,-1.6169,-1.6177,-1.618,-1.6179,-1.6181,-1.6182,-1.618,-1.6183,-1.6181,-1.6186,-1.6187,-1.6255,-1.6257,-1.6294,-1.6311,-1.6337,0,0,0,-1.6179,-1.6216,-1.6181,-1.6221,-1.6181,-1.6208,-1.618,-1.6199,-1.6208,-1.6186,-1.6256,-1.6257,-1.6293,-1.6309,-1.6335,-1.6361,-1.6373,0,0,-1.6234,-1.6223,-1.6245,-1.6214,-1.6251,-1.6207,-1.625,-1.6245,-1.6232,-1.625,-1.6252,-1.6297,-1.6311,-1.6337,-1.6442,-1.6452,0,0,0,-1.6268,-1.6284,-1.6291,-1.63,-1.6298,-1.6297,-1.6284,-1.6283,-1.6297,-1.6244,-1.6314,-1.6322,-1.6337,-1.6348,-1.6357,-1.6368,-1.6264,-1.6264,-1.6264,-1.6364,-1.6348,-1.6384,-1.6368,-1.6378,-1.6365,-1.6371,-1.6367,-1.6346,-1.6364,-1.6368,-1.6434,-1.6448,-1.6454,-1.6466,-1.6382,-1.6382,-1.6382,-1.6382,-1.6442,-1.6462,-1.6436,-1.6461,-1.6444,-1.6465,-1.6456,-1.6441,-1.6459,-1.6428,-1.6441,-1.6407,-1.6466,-1.6475,-1.6385,-1.6385,-1.6384,-1.6384,-1.6384,-1.6502,-1.6509,-1.6507,-1.6521,-1.6533,-1.6517,-1.6536,-1.6519,-1.6504,-1.6516,-1.6519,-1.6518,-1.6515,-1.652,-1.652,-1.652,-1.652,-1.652,-1.652,-1.6564,-1.6561,-1.6578,-1.6581,-1.6586,-1.6591,-1.6581,-1.6586,-1.6587,-1.6573,-1.6573,-1.6551,-1.6475,-1.6455,-1.6524,-1.6523,-1.6523,-1.6522,-1.6522,-1.6645,-1.6625,-1.6652,-1.6657,-1.666,-1.6674,-1.6655,-1.6666,-1.6668,-1.6678,-1.6655,-1.6602,-1.6589,-1.6583,-1.6566,-1.6659,-1.6659,-1.6659,-1.6659,-1.6694,-1.6688,-1.6712,-1.6722,-1.673,-1.6716,-1.6748,-1.6742,-1.6733,-1.6733,-1.6718,-1.6696,-1.669,-1.6681,-1.6672,-1.6656,-1.6769,-1.6769,-1.6769,-1.6743,-1.6737,-1.6766,-1.6757,-1.6759,-1.6762,-1.6792,-1.6805,-1.679,-1.6774,-1.6733,-1.6728,-1.6692,-1.6681,-1.666,-1.6647,-1.6617,0,0]},{"header":{"parameterUnit":"m.s-1","parameterCategory":1,"la1":30.2992,"la2":30.254,"lo1":-89.0895,"lo2":-89.0443,"dy":0.0025,"dx":0.0025,"nx":19,"ny":19,"refTime":"2026-03-09T03:00:00:Z","depth":0,"parameterNumber":3,"parameterNumberName":"V-component_of_WINDS"},"data":[0,0,0,1.5267,1.5267,1.5325,1.5326,1.5375,1.5375,0,0,0,0,0,0,0,0,0,0,0,1.5234,1.5233,1.5266,1.5267,1.5325,1.5326,1.5375,1.5375,0,0,0,0,0,0,0,0,0,0,0,1.5234,1.5233,1.5233,1.5268,1.5325,1.5326,1.5375,1.534,0,0,0,0,0,0,0,0,0,0,1.5288,1.5242,1.5233,1.5233,1.5268,1.5325,1.5326,1.5339,1.5342,1.5338,0,1.533,0,1.5353,1.5377,1.5377,0,0,0,1.5279,1.5239,1.5269,1.5233,1.5268,1.5325,1.5303,1.5341,1.5345,1.5342,1.5331,1.5333,1.5354,1.5377,1.5377,1.5314,1.5313,0,0,1.5276,1.5235,1.5266,1.5271,1.526,1.5301,1.5304,1.5344,1.5328,1.5331,1.5335,1.5355,1.5377,1.5378,1.5315,1.5314,0,0,0,1.5259,1.5232,1.5262,1.5268,1.528,1.5302,1.5306,1.5326,1.534,1.5335,1.5355,1.5378,1.5378,1.5316,1.5314,1.5233,0,0,0,1.5258,1.5223,1.526,1.5236,1.5279,1.5304,1.5287,1.5337,1.5343,1.5355,1.5378,1.5378,1.5317,1.5315,1.5237,1.5201,0,0,0,1.5235,1.522,1.5223,1.5234,1.5257,1.5304,1.532,1.5339,1.5354,1.5377,1.5378,1.5317,1.5315,1.5241,1.5207,1.5173,0,0,0,1.5199,1.5149,1.5221,1.5174,1.5256,1.5254,1.532,1.532,1.533,1.5378,1.5317,1.5315,1.5242,1.5211,1.5176,1.5135,1.5115,0,0,1.5113,1.5137,1.5113,1.5179,1.5153,1.5248,1.5211,1.5259,1.5298,1.5307,1.5306,1.5236,1.5208,1.5173,1.5014,1.4997,0,0,0,1.5072,1.5053,1.5055,1.5063,1.5099,1.5127,1.5185,1.5204,1.5213,1.5294,1.5216,1.52,1.5182,1.5164,1.515,1.5137,1.5305,1.5305,1.5305,1.489,1.4944,1.4907,1.4969,1.4976,1.5038,1.5049,1.5085,1.5136,1.5117,1.5119,1.5016,1.4994,1.4983,1.4969,1.5103,1.5103,1.5103,1.5102,1.4768,1.4751,1.4824,1.4813,1.4872,1.4864,1.4923,1.496,1.4963,1.5018,1.5005,1.506,1.4963,1.4954,1.5097,1.5098,1.5098,1.5099,1.5099,1.4654,1.4655,1.468,1.4699,1.4708,1.4774,1.4773,1.4826,1.4876,1.4863,1.4872,1.4874,1.4881,1.4864,1.4864,1.4863,1.4863,1.4863,1.4863,1.4526,1.4556,1.4548,1.4585,1.4598,1.4623,1.4687,1.4702,1.4733,1.4772,1.4772,1.4826,1.4944,1.4972,1.4857,1.4858,1.4859,1.4859,1.486,1.438,1.4422,1.441,1.4424,1.4473,1.4479,1.4549,1.4576,1.4596,1.4595,1.4653,1.4732,1.476,1.4771,1.4795,1.4641,1.4641,1.4641,1.4641,1.4283,1.4304,1.4305,1.4324,1.4349,1.4412,1.4398,1.4449,1.4507,1.4524,1.4555,1.4591,1.4601,1.4623,1.4638,1.4661,1.4476,1.4476,1.4476,1.4197,1.4223,1.42,1.4258,1.4301,1.4337,1.4327,1.4346,1.4422,1.4471,1.4538,1.4545,1.4605,1.4621,1.4668,1.469,1.4733,0,0]}]]